Home   Weather   Luton   Past weeks

Flag for United Kingdom Past Weather in Luton, England, United Kingdom — Yesterday and Last 2 Weeks

57 °F

Partly sunny.

Feels Like: 54 °F
Forecast: 46 / 56 °F
Wind: 13 mph from West

Location: Luton Airport

Current Time: Oct 26, 2016 at 4:32:04 PM

Latest Report: Oct 26, 2016 at 3:50 PM

Visibility: N/A

Pressure: 30.33 "Hg

Humidity: 82%

Dew Point: 52 °F

Location of LutonLocation

Past Weather in Luton — Graph


Luton Temperature Yesterday

Maximum temperature yesterday: 54 °F (at 2:20 PM)
Minimum temperature yesterday: 45 °F (at 5:50 AM)
Average temperature yesterday: 49 °F

High & Low Weather Summary for the Past Weeks

High61 °F (Oct 16, 2:20 PM)100% (Oct 11, 10:50 PM)30.36 "Hg (Oct 11, 10:50 PM)
Low41 °F (Oct 13, 3:20 AM)54% (Oct 18, 2:50 PM)29.65 "Hg (Oct 14, 11:50 PM)
Average50 °F90%30.01 "Hg
* Reported Oct 11 3:20 PM — Oct 26 3:20 PM, Luton, Weather by CustomWeather, © 2016

Note: Actual official high and low records may vary slightly from our data, if they occured in-between our weather recording intervals... More about our weather records


Luton Weather History for the Previous 24 Hours

Scroll right to see more
Time TempWeatherWind HumidityBarometerVisibility
3:20 PM
Wed, Oct 26
57 °FPartly sunny.12 mph82%30.33 "HgN/A
2:50 PM57 °FPartly sunny.12 mph82%30.33 "HgN/A
2:20 PM57 °FPartly sunny.9 mph82%30.33 "HgN/A
1:50 PM55 °FScattered clouds.10 mph88%30.33 "HgN/A
1:20 PM55 °FPartly sunny.12 mph88%30.36 "HgN/A
12:50 PM55 °FOvercast.9 mph88%30.36 "HgN/A
12:20 PM54 °FLow clouds.12 mph94%30.36 "HgN/A
11:50 AM54 °FLow clouds.12 mph94%30.36 "HgN/A
11:20 AM54 °FLow clouds.9 mph100%30.36 "HgN/A
10:50 AM54 °FLow clouds.9 mph100%30.33 "HgN/A
10:20 AM52 °FLow clouds.7 mph100%30.33 "HgN/A
9:50 AM52 °FLow clouds.8 mph100%30.33 "HgN/A
9:20 AM52 °FMostly cloudy.7 mph100%30.33 "Hg5 mi
8:50 AM50 °FFog.6 mph100%30.33 "Hg2 mi
8:20 AM50 °FFog.7 mph100%30.33 "Hg1 mi
7:50 AM50 °FFog.8 mph100%30.33 "Hg1 mi
7:20 AM50 °FFog.8 mph100%30.30 "Hg1 mi
6:50 AM50 °FFog.7 mph100%30.30 "Hg0 mi
6:20 AM50 °FFog.6 mph100%30.30 "Hg0 mi
5:50 AM50 °FFog.6 mph100%30.30 "Hg0 mi
5:20 AM50 °FFog.7 mph100%30.30 "Hg0 mi
4:50 AM50 °FFog.5 mph100%30.27 "Hg0 mi
4:20 AM50 °FFog.5 mph100%30.30 "Hg0 mi
3:50 AM50 °FFog.3 mph100%30.30 "Hg0 mi
3:20 AM50 °FFog.7 mph100%30.30 "Hg0 mi
2:50 AM50 °FFog.5 mph100%30.30 "Hg0 mi
2:20 AM50 °FFog.7 mph100%30.30 "Hg1 mi
1:50 AM50 °FFog.5 mph100%30.30 "Hg3 mi
1:20 AM48 °FFog.5 mph100%30.30 "Hg2 mi
12:50 AM48 °FFog.5 mph100%30.30 "Hg3 mi
12:20 AM48 °FFog.3 mph100%30.27 "Hg3 mi
11:50 PM
Tue, Oct 25
48 °FPassing clouds.5 mph100%30.27 "Hg4 mi
11:20 PM50 °FPassing clouds.3 mph94%30.27 "Hg4 mi
10:50 PM50 °FOvercast.2 mph100%30.27 "Hg4 mi
10:20 PM50 °FPassing clouds.3 mph94%30.27 "Hg4 mi
9:50 PM50 °FOvercast.2 mph100%30.27 "Hg4 mi
9:20 PM50 °FOvercast.1 mph100%30.27 "Hg4 mi
8:50 PM52 °FOvercast.2 mph94%30.27 "Hg4 mi
8:20 PM52 °FOvercast.2 mph94%30.27 "Hg4 mi
7:50 PM52 °FPassing clouds.2 mph94%30.27 "Hg4 mi
7:20 PM52 °FPartly cloudy.2 mph94%30.27 "Hg4 mi
6:50 PM52 °FOvercast.2 mph94%30.27 "Hg5 mi
6:20 PM52 °FOvercast.2 mph94%30.24 "Hg4 mi
5:50 PM52 °FOvercast.3 mph94%30.24 "Hg5 mi
5:20 PM52 °FPartly sunny.2 mph88%30.24 "HgN/A
4:50 PM54 °FPartly sunny.3 mph88%30.21 "HgN/A
4:20 PM54 °FOvercast.2 mph88%30.21 "HgN/A
Weather by CustomWeather, © 2016

See weather overviewHow to use our weather pages